COSMOS 2251 DEB, 34883

Orbit data source: Space-Track

COSMOS 2251 DEB, 34883 is space debris in LEO originally from a launch on Wed, 16 Jun 1993 UTC launched from the Plesetsk Missile And Space Complex (PKMTR). The debris from Iridium 33, an American commercial communications satellite, has been tracked extensively since its accidental collision with the defunct Russian satellite Cosmos 2251 in 2009. This event, occurring at high speed in low Earth orbit (LEO), generated thousands of pieces of space debris, significantly increasing the risk of further collisions. The Iridium 33 debris cloud has impacted space traffic management and orbital debris mitigation strategies, making it a subject of ongoing study in space situational awareness.

Loading next visibility...
Identifier
34883, 1993-036ACW
Orbit
LEO
Country
Flag of CISCIS
Related business
Manufacturer
Unknown
Mission
Spacecraft
Bus & Motor
Unknown
Mass
Unknown
Launch date (UTC)
1993-06-16 (33 years ago)
Launch vehicle
Unknown
Launch site
Plesetsk Missile And Space Complex (PKMTR)
Object type
Payload
Rocket body
Debris
Shape & HBR
Unknown shape, 0.1 m
Radar Cross Section
Small (<0.1 m²)

Expand to show TLE details & history
Last TLE update: 6 hours ago

TLE from 6 hours ago
0 COSMOS 2251 DEB
1 34883U 93036ACW 26035.84558657  .00015291  00000-0  34986-2 0  9991
2 34883  74.2002 321.7360 0089915 130.4517 230.4532 14.53173664872251
Epoch: 2026-02-04T20:17Z
TLE epoch observation values (Epoch: 2026-02-04T20:17:38.679Z)
Latitude
-0.00001°
Longitude
-117.68149°
Altitude
758.899 km
Speed
7.454 km/s
True Right ascension
21h 26m 56s
True Declination
0° 00' 00"
Sunlit
Object was in daylight at epoch
Visualization orbit readout
Latitude
Unknown
Longitude
Unknown
Altitude
Unknown
Speed
Unknown
Apparent Right ascension
Unknown
Apparent Declination
Unknown
Sunlit
N/A
Visualization observer readout
Local Sidereal Time
04:10:01
Azimuth
Unknown
Elevation
Unknown
Doppler factor
Unknown
Orbital elements
Apogee altitude
776.652 km
Perigee altitude
649.134 km
Semi-major axis
7,091.03 km
Eccentricity
0.00899
Inclination
74.2002°
RAAN
321.736°
Arg. of periapsis
130.4517°
True anomaly
229.66436°
Mean anomaly
230.4532°
Eccentric anomaly
230.05822°
Mean motion
3.63479 °/min
Orbital period
99.04 mins
BSTAR
0.0034986
Loading maneuver chart data...
Computing Atmospheric mass density...

Documentation

Showing up to 5 results
|